Location: B�coup
(47.1524°N, 4.7251°E)
Time: 10:14:03
(UTC+00:00)

Daily predictions for brighter satellites

Satellite Brightness Start Highest point End
(mag) Time Altitude Azimuth Time Altitude Azimuth Time Altitude Azimuth
Cosmos 1943 Rocket 3.5 18:32:09 10° N 18:36:25 22° NE 18:40:42 10° E
STARLINK-1091 3.7 18:33:15 10° WNW 18:37:17 65° NNE 18:41:19 10° ESE
Cosmos 1980 3.7 18:31:55 10° SSW 18:37:36 80° ESE 18:43:19 10° NNE
CZ-2D R/B 4.2 18:34:19 10° S 18:38:03 53° W 18:41:48 10° NNW
Cosmos 1766 3.4 18:34:13 10° S 18:38:07 54° E 18:42:02 10° NNE
S3M 4.1 18:33:43 10° S 18:40:01 65° E 18:46:21 10° NNE
Cosmos 2084 4.1 18:37:24 10° SW 18:41:52 63° NW 18:46:20 10° NE
Ariane Rocket 3.1 18:37:02 10° SSE 18:42:01 60° ENE 18:47:01 10° N
YAOGAN 1 3.8 18:38:03 10° S 18:42:13 47° W 18:46:25 10° NNW
STARLINK-1224 4.0 18:38:33 10° SSW 18:42:20 41° SE 18:46:09 10° ENE
BREEZE-M DEB (TANK) 4.2 18:27:54 10° WNW 18:43:08 60° SW 18:46:48 10° SE
Cosmos 1386 Rocket 4.4 18:37:25 10° N 18:43:29 69° E 18:49:27 10° SSE
SL-08 ROCKET BODY 4.4 18:37:32 10° N 18:43:41 69° E 18:49:41 10° SSE
Cosmos 1455 Rocket 3.3 18:40:58 10° SSE 18:45:06 45° E 18:49:17 10° NNE
STARLINK-1225 3.9 18:43:11 10° SW 18:47:01 44° SE 18:50:53 10° ENE
Cosmos 1110 Rocket 4.0 18:42:05 10° NNW 18:47:22 77° ENE 18:52:35 10° SSE
Cosmos 332 Rocket 4.1 18:43:41 10° NNW 18:48:36 75° WSW 18:53:29 10° SSE
STARLINK-1203 3.8 18:45:08 10° SW 18:48:56 49° SE 18:52:46 10° ENE
STARLINK-1072 3.5 18:46:28 10° WNW 18:50:29 77° NNE 18:54:14 11° ESE
Cosmos 1892 Rocket 3.6 18:46:39 10° N 18:51:10 83° E 18:55:39 10° S
SL-16 R/B 2.7 18:46:02 10° S 18:51:11 38° ESE 18:56:22 10° NE
STARLINK-1230 3.8 18:47:45 10° SW 18:51:38 48° SE 18:55:32 10° ENE
Cosmos 2333 Rocket 3.9 18:46:24 10° WSW 18:51:39 36° NW 18:56:53 10° NNE
Cosmos 1626 Rocket 4.4 18:48:42 10° N 18:52:40 31° ENE 18:56:34 10° SE
USA 186 2.2 18:51:06 10° SSE 18:54:25 49° ENE 18:57:42 10° N
STARLINK-1234 2.8 18:51:55 10° WSW 18:54:55 85° NNW 18:57:55 10° ENE
STARLINK-1096 3.5 18:50:55 10° WNW 18:54:56 81° NNE 18:58:31 13° ESE
Cosmos 1953 4.1 18:53:53 12° ESE 18:55:19 13° E 18:57:16 10° NE
ARGOS Delta rocket 4.0 18:50:23 10° SSE 18:55:27 75° ENE 19:00:49 10° N
Cosmos 1626 2.5 18:52:08 10° N 18:55:41 42° ENE 18:59:12 10° SSE
STARLINK-1243 3.7 18:52:24 10° SW 18:56:19 51° SE 19:00:15 10° ENE
NOSS 2-1 (E) 4.1 18:54:21 10° WSW 18:57:40 48° NW 19:01:22 10° NNE
Okean 1-7 Rocket 3.5 18:54:39 10° N 18:59:06 86° E 19:03:28 10° S
STARLINK-1101 4.5 18:55:11 10° WNW 18:59:08 42° NNE 19:02:46 12° E
STARLINK-1079 3.5 18:55:24 10° WNW 18:59:25 85° NNE 19:02:49 14° ESE
Cosmos 1602 Rocket 4.5 18:56:15 10° N 19:00:13 30° ENE 19:03:55 11° SE
STARLINK-1236 3.7 18:57:01 10° SW 19:00:58 56° SE 19:04:55 10° ENE
ATLAS 2AS CENTAUR R/B 4.3 18:57:06 10° NW 19:03:37 27° NNE 19:09:46 10° ENE
STARLINK-1116 3.5 18:59:52 10° WNW 19:03:53 90° W 19:07:08 15° ESE
STARLINK-1102 4.4 19:00:10 10° WNW 19:04:08 43° NNE 19:07:32 13° E
SJ-11-01 4.5 19:00:37 10° S 19:05:18 78° WSW 19:10:03 10° NNW
H-2A R/B 2.1 19:00:59 10° SSE 19:06:19 80° ENE 19:11:31 10° NNW
STARLINK-1111 4.4 19:05:08 10° WNW 19:09:08 44° NNE 19:12:19 15° E
Aureole 2 Rocket 4.3 19:07:14 10° NNE 19:09:26 15° NE 19:10:31 14° ENE
STARLINK-1118 4.5 19:08:12 10° W 19:09:48 18° SW 19:11:25 10° S
Cosmos 883 Rocket 4.5 19:04:06 10° S 19:10:12 66° E 19:16:26 10° NNE
STARLINK-1269 3.5 19:06:21 10° SW 19:10:21 65° SE 19:14:22 10° ENE
ERBS 3.9 19:09:17 10° W 19:12:24 33° NNW 19:15:30 10° NE
Cosmos 1544 Rocket 3.5 19:08:09 10° S 19:12:30 67° E 19:16:55 10° NNE
STARLINK-1094 3.5 19:08:50 10° WNW 19:12:52 80° SSW 19:15:46 18° SE
Cosmos 1745 Rocket 4.4 19:06:53 10° NNW 19:13:10 68° W 19:19:20 10° S
STARLINK-1073 4.3 19:10:08 10° WNW 19:14:08 46° NNE 19:17:06 17° E
STARLINK-1200 3.5 19:11:02 10° SW 19:15:03 69° SSE 19:18:56 11° ENE
Cosmos 2297 3.7 19:09:25 10° NNW 19:15:07 80° ENE 19:20:50 10° SSE
USA 234 3.4 19:09:08 10° ENE 19:15:33 54° SE 19:21:56 10° SSW
CZ-2C R/B 4.2 19:11:20 10° NNE 19:15:52 42° E 19:20:18 10° S
STARLINK-1117 3.6 19:13:21 10° WNW 19:17:23 75° SSW 19:20:06 20° SE
STARLINK-1121 4.2 19:15:07 10° WNW 19:19:09 47° NNE 19:21:53 19° E
STARLINK-1192 3.5 19:15:39 10° SW 19:19:41 74° SSE 19:23:25 12° ENE
ADEOS Rocket 4.4 19:14:02 10° N 19:20:35 47° WNW 19:26:28 10° SW
Cosmos 2237 Rocket 3.0 19:15:53 10° SW 19:21:23 54° WNW 19:26:56 10° NNE
STARLINK-1078 3.6 19:17:51 10° WNW 19:21:52 71° SSW 19:24:26 21° SE
STARLINK-1106 4.2 19:20:05 10° WNW 19:24:08 49° NNE 19:26:39 21° E
STARLINK-1244 3.4 19:20:26 10° SW 19:24:28 79° SSE 19:28:01 13° ENE
STARLINK-1201 3.2 19:21:37 10° WSW 19:24:52 68° NNW 19:27:31 15° ENE
Cosmos 1302 Rocket 4.0 19:19:37 10° NNW 19:24:55 77° ENE 19:29:43 13° SSE
STARLINK-1108 3.7 19:22:23 10° WNW 19:26:23 66° SW 19:28:47 23° SE
Cosmos 2278 Rocket 4.2 19:22:17 10° NW 19:27:00 27° WSW 19:31:41 10° SSW
CZ-2C R/B 3.1 19:23:09 10° NNE 19:27:52 34° E 19:32:31 10° SSE
Cosmos 1269 Rocket 4.0 19:23:18 10° SSW 19:28:37 90° E 19:33:57 10° NNE
STARLINK-1112 4.1 19:25:05 10° WNW 19:29:09 51° NNE 19:31:27 23° E
STARLINK-1138 3.5 19:25:06 10° WSW 19:29:09 84° SSE 19:32:32 15° ENE
STARLINK-1209 3.6 19:27:26 10° W 19:30:15 45° NNW 19:32:14 17° NE
STARLINK-1066 4.1 19:27:47 10° WNW 19:30:43 34° SW 19:32:18 20° SSE
STARLINK-1071 3.8 19:26:55 10° WNW 19:30:54 61° SW 19:33:08 24° SE
STARLINK-1081 4.1 19:28:16 10° WNW 19:31:08 34° SW 19:32:41 21° SSE
STARLINK-1228 3.7 19:28:26 10° W 19:31:12 44° NNW 19:33:09 17° NE
STARLINK-1070 4.1 19:28:43 10° WNW 19:31:35 33° SW 19:33:06 21° SSE
STARLINK-1124 3.9 19:27:49 10° WNW 19:31:55 61° SW 19:34:14 24° SE
STARLINK-1069 4.2 19:29:08 10° WNW 19:32:01 33° SW 19:33:34 21° SSE
STARLINK-1085 4.2 19:29:34 10° WNW 19:32:28 33° SW 19:34:00 21° SSE
STARLINK-1086 4.2 19:30:06 10° WNW 19:32:56 33° SW 19:34:25 21° S
STARLINK-1095 4.2 19:30:32 10° WNW 19:33:23 32° SW 19:34:50 21° S
STARLINK-1077 4.2 19:30:59 10° WNW 19:33:49 32° SW 19:35:16 21° S
Meteor 1-24 Rocket 4.4 19:28:30 10° NNW 19:33:54 53° W 19:39:06 10° S
STARLINK-1143 3.5 19:29:53 10° WSW 19:33:57 89° SE 19:37:08 16° ENE
STARLINK-1128 4.0 19:30:05 10° WNW 19:34:10 54° NNE 19:36:15 26° E
STARLINK-1075 4.2 19:31:26 10° WNW 19:34:16 32° SW 19:35:42 21° S
ARGOS 3.4 19:29:03 10° S 19:34:26 73° WSW 19:39:51 10° NNW
STARLINK-1093 4.3 19:31:51 10° WNW 19:34:43 32° SW 19:36:10 21° S
SL-8 R/B 3.8 19:30:17 10° W 19:35:04 75° N 19:38:02 23° E
STARLINK-1074 4.3 19:32:18 10° WNW 19:35:09 32° SW 19:36:36 21° S
STARLINK-1110 3.9 19:31:27 10° WNW 19:35:24 57° SW 19:37:29 26° SE
Cosmos 2251 Rocket 4.2 19:30:53 10° SSE 19:35:34 32° E 19:40:18 10° NE
STARLINK-1087 4.3 19:32:48 10° WNW 19:35:37 31° SW 19:37:00 21° S
STARLINK-1088 4.3 19:33:16 10° WNW 19:36:04 31° SW 19:37:26 21° S
STARLINK-1115 4.3 19:33:41 10° WNW 19:36:32 31° SW 19:37:55 21° S
STARLINK-1076 4.3 19:34:07 10° WNW 19:36:57 30° SW 19:38:20 21° S
STARLINK-1092 4.3 19:34:35 10° WNW 19:37:25 30° SW 19:38:47 21° S
SL-24 R/B 4.1 19:33:09 10° NNE 19:37:48 60° E 19:41:50 10° S
STARLINK-1080 4.3 19:35:05 10° WNW 19:37:52 30° SW 19:39:10 21° S
STARLINK-1090 4.4 19:35:32 10° WNW 19:38:18 29° SW 19:39:36 21° S
STARLINK-1089 4.4 19:35:59 10° WNW 19:38:45 29° SW 19:40:02 21° S
STARLINK-1113 4.0 19:35:04 10° WNW 19:39:09 56° NNE 19:41:02 29° E
STARLINK-1107 4.4 19:36:26 10° WNW 19:39:12 29° SW 19:40:28 21° S
Cosmos 1470 2.6 19:37:29 10° S 19:41:22 86° E 19:45:16 10° N
STARLINK-1119 3.9 19:40:02 10° WNW 19:44:08 59° NNE 19:45:48 32° E
STARLINK-1241 3.6 19:40:21 10° WSW 19:44:22 80° NNW 19:47:06 20° ENE
STARLINK-1122 4.1 19:40:38 10° WNW 19:44:33 49° SW 19:46:17 28° SSE
STARLINK-1233 3.7 19:41:38 10° W 19:44:40 48° NNW 19:46:21 23° NE
STARLINK-1212 3.7 19:42:05 10° W 19:45:08 48° NNW 19:46:46 23° NE
STARLINK-1105 3.7 19:42:32 10° W 19:45:34 48° NNW 19:47:13 23° NE
Cosmos 2315 Rocket 4.1 19:39:16 10° S 19:45:35 86° W 19:52:00 10° N
SL-08 RB Rocket 3.9 19:41:06 10° S 19:45:36 72° WSW 19:50:11 10° NNW
STARLINK-1206 3.7 19:43:02 10° W 19:46:03 47° NNW 19:47:38 24° NE
STARLINK-1247 3.7 19:43:28 10° W 19:46:30 47° NNW 19:48:03 24° NE
SJ-6B 3.6 19:42:46 10° S 19:46:45 54° W 19:50:49 10° NNW
STARLINK-1227 3.8 19:43:53 10° W 19:46:56 47° NNW 19:48:30 24° NE
MetOp-A 4.1 19:42:29 14° SSE 19:47:12 85° ENE 19:52:35 10° NNW
ISS -3.1 19:44:00 10° WNW 19:47:16 48° NNE 19:48:11 36° ENE
STARLINK-1218 3.8 19:44:22 10° W 19:47:24 47° NNW 19:48:55 24° NE
Resurs 1-3 3.5 19:44:43 22° SSE 19:47:29 77° ENE 19:51:54 10° N
STARLINK-1226 3.8 19:44:50 10° W 19:47:52 46° NNW 19:49:23 24° NE
STARLINK-1254 3.8 19:45:14 10° W 19:48:17 46° NNW 19:49:48 24° NE
STARLINK-1215 3.8 19:45:44 10° W 19:48:46 46° NNW 19:50:14 25° NE
STARLINK-1239 3.6 19:44:57 10° WSW 19:48:58 76° NNW 19:51:30 22° ENE
STARLINK-1114 3.8 19:45:02 10° WNW 19:49:09 62° NNE 19:50:36 37° E
STARLINK-1126 4.2 19:45:17 10° WNW 19:49:09 46° SW 19:50:44 29° SSE
STARLINK-1231 3.8 19:46:11 10° W 19:49:12 46° NNW 19:50:39 25° NE
Cosmos 1758 3.3 19:45:11 10° S 19:49:16 86° W 19:53:24 10° N
ERS-1 Rocket 4.5 19:48:48 19° ENE 19:49:30 19° ENE 19:52:58 10° NNE
STARLINK-1232 3.8 19:47:06 10° W 19:50:07 45° NNW 19:51:32 25° NE
STARLINK-1217 3.8 19:47:33 10° W 19:50:35 45° NNW 19:51:58 26° NE
STARLINK-1208 3.9 19:47:58 10° W 19:51:00 45° NNW 19:52:25 26° NE
STARLINK-1229 3.9 19:48:27 10° W 19:51:28 44° NNW 19:52:48 26° NE
STARLINK-1271 3.9 19:48:55 10° W 19:51:56 44° NNW 19:53:16 26° NE
BREEZE-M DEB (TANK) 3.7 19:45:17 10° WNW 19:52:05 69° N 19:53:09 40° ENE
STARLINK-1270 3.9 19:49:23 10° W 19:52:24 44° NNW 19:53:42 27° NE
IRIDIUM 104 4.2 19:47:22 10° N 19:52:37 73° E 19:56:26 19° SSE
BREEZE M DEB (TANK) 4.3 19:43:01 10° SW 19:52:43 34° SSE 19:53:50 31° SE
STARLINK-1154 3.9 19:49:49 10° W 19:52:49 44° NNW 19:54:07 27° NE
CZ-2C R/B 4.0 19:48:21 10° S 19:53:12 45° W 19:57:54 10° NNW
STARLINK-1240 3.7 19:49:33 10° WSW 19:53:35 72° NNW 19:55:56 24° NE
STARLINK-1082 4.3 19:49:52 10° WNW 19:53:42 43° SW 19:55:08 30° S
STARLINK-1197 3.9 19:50:44 10° W 19:53:43 43° NNW 19:54:59 27° NE
STARLINK-1130 (DARKSAT) 3.7 19:50:00 10° WNW 19:54:07 65° NNE 19:55:22 41° E
STARLINK-1189 3.9 19:51:11 10° W 19:54:11 43° NNW 19:55:26 27° NE
Resurs 01 Rocket 1.6 19:53:05 34° SE 19:54:51 65° ENE 19:59:14 10° N
STARLINK-1187 4.1 19:52:05 10° W 19:55:04 40° NNW 19:56:20 26° NE
STARLINK-1188 3.9 19:52:06 10° W 19:55:05 43° NNW 19:56:17 28° NNE
STARLINK-1198 3.9 19:52:20 10° W 19:55:19 42° NNW 19:56:31 28° NNE
Cosmos 2369 Rocket 2.4 19:49:53 10° NNW 19:55:31 56° ENE 19:57:50 34° ESE
STARLINK-1235 4.2 19:52:48 10° W 19:55:48 38° NNW 19:57:05 25° NNE
Abrixas rocket 4.3 19:53:34 10° SSW 19:54:14 15° SSW 19:54:14 15° SSW
STARLINK-1199 4.0 19:54:02 10° W 19:57:03 42° NNW 19:58:12 28° NNE
STARLINK-1191 4.0 19:54:30 10° W 19:57:30 42° NNW 19:58:39 29° NNE
STARLINK-67 4.3 19:55:20 10° WNW 19:57:35 26° NNW 19:58:04 24° N
STARLINK-1210 4.0 19:54:56 10° W 19:57:57 42° NNW 19:59:05 29° NNE
STARLINK-1216 3.8 19:54:12 10° WSW 19:58:13 68° NNW 20:00:23 26° NE
STARLINK-1100 4.5 19:54:28 10° WNW 19:58:15 40° SW 19:59:31 30° S
STARLINK-1221 4.0 19:55:25 10° W 19:58:26 41° NNW 19:59:32 29° NNE
STARLINK-1219 4.0 19:55:52 10° W 19:58:52 41° NNW 19:59:58 29° NNE
STARLINK-1084 3.7 19:54:58 10° WNW 19:59:06 69° NNE 20:00:09 47° E
STARLINK-1222 4.0 19:56:18 10° W 19:59:19 41° NNW 20:00:23 29° NNE
STARLINK-1211 4.0 19:56:46 10° W 19:59:46 41° NNW 20:00:48 30° NNE
STARLINK-1214 4.0 19:57:14 10° W 20:00:13 41° NNW 20:01:15 30° NNE
STARLINK-1245 4.0 19:57:44 10° W 20:00:42 40° NNW 20:01:40 30° NNE
STARLINK-1238 4.1 19:58:08 10° W 20:01:08 40° NNW 20:02:07 30° NNE
Meteor 2-15 Rocket 4.4 19:55:32 10° S 20:01:37 89° W 20:07:44 10° N
IRIDIUM 114 4.2 19:56:31 10° N 20:01:47 87° E 20:05:35 19° S
STARLINK-1205 4.1 19:59:06 10° W 20:02:04 40° NNW 20:02:58 31° NNE
STARLINK-1204 4.1 19:59:32 10° W 20:02:29 39° NNW 20:03:23 31° NNE
STARLINK-1237 3.9 19:58:53 10° WSW 20:02:53 64° NNW 20:04:52 28° NE
STARLINK-1098 3.6 19:59:56 10° WNW 20:04:04 73° NNE 20:04:55 53° E
SPOT 3 Rocket 4.0 20:00:43 12° S 20:05:26 62° WSW 20:10:38 10° NNW
Cosmos 1726 2.6 20:06:29 45° NE 20:06:29 45° NE 20:09:29 10° NNE
STARLINK-1202 3.9 20:03:31 10° WSW 20:07:31 61° NNW 20:09:19 30° NE
Meteor 1-21 Rocket 4.1 20:02:36 10° NNW 20:08:12 87° W 20:11:31 25° S
Nadezhda 1 Rocket 4.3 20:06:17 32° SE 20:08:43 47° E 20:14:46 10° NNE
STARLINK-1123 3.5 20:04:56 10° WNW 20:09:05 77° NNE 20:09:44 61° E
Cosmos 2228 3.8 20:11:02 35° ENE 20:11:02 35° ENE 20:14:06 10° NNE
IRIDIUM 103 4.4 20:05:43 10° N 20:10:57 79° W 20:14:45 19° S
STARLINK-1246 4.0 20:08:39 10° WSW 20:12:40 58° NNW 20:14:18 32° NE
MOS 1 Rocket 3.5 20:07:44 10° NNE 20:12:57 85° ESE 20:18:21 10° SSW
STARLINK-1097 3.5 20:09:53 10° WNW 20:14:03 82° NNE 20:14:29 69° E
Cosmos 292 Rocket 3.7 20:13:03 10° NNW 20:17:52 87° WSW 20:19:07 50° SSE
Cosmos 1943 3.7 20:19:28 39° E 20:19:28 39° E 20:23:55 10° NE
STARLINK-1099 3.4 20:14:53 10° WNW 20:19:03 87° NNE 20:19:17 79° ESE
Cosmos 1943 Rocket 2.2 20:15:15 10° NNW 20:20:47 77° WSW 20:22:51 40° SSE
STARLINK-1224 4.2 20:17:34 10° W 20:21:31 53° NNW 20:22:45 37° NE
NOSS 3-4 (A) 4.5 20:16:43 10° NNW 20:23:09 42° NE 20:25:57 31° E
NOSS 3-4 (C) 4.5 20:16:49 10° NNW 20:23:15 42° NE 20:26:03 31° E
Cosmos 2074 Rocket 4.0 20:17:02 10° N 20:23:20 86° W 20:26:45 29° S
STARLINK-1104 3.5 20:19:52 10° WNW 20:24:02 88° SSW 20:24:04 87° SSE
STARLINK-1225 4.3 20:22:18 10° W 20:26:15 51° NNW 20:27:17 39° NNE
Cosmos 1328 4.2 20:23:28 10° N 20:26:45 51° NNE 20:26:45 51° NNE
STARLINK-1203 4.3 20:24:02 10° W 20:27:52 47° NNW 20:28:44 39° NNE
STARLINK-1144 3.6 20:24:50 10° WNW 20:28:50 80° WSW 20:28:50 80° WSW
Cosmos 1437 4.4 20:26:52 10° NNW 20:28:32 30° NNW 20:28:32 30° NNW
STARLINK-1230 4.3 20:26:59 10° W 20:30:54 49° NNW 20:31:44 41° NNE
Cosmos 1953 3.0 20:29:29 29° SW 20:31:13 53° WNW 20:35:08 10° N
Meteor 2-10 4.0 20:28:34 24° SSW 20:31:52 86° W 20:37:27 10° N
SPOT 1/Viking Rocket 3.7 20:32:06 52° ENE 20:32:19 52° ENE 20:37:23 10° N
NOSS 3-3 (A) 3.8 20:27:02 10° SSW 20:32:47 62° ESE 20:39:15 10° NE
NOSS 3-3 (C) 3.8 20:27:09 10° SSW 20:32:53 62° ESE 20:39:22 10° NE
Spot 2 Rocket 3.4 20:33:06 64° SE 20:33:53 81° ENE 20:39:02 10° NNW
STARLINK-1103 3.7 20:29:48 10° WNW 20:33:37 71° W 20:33:37 71° W
Cosmos 2084 Rocket 3.6 20:30:44 10° NW 20:35:11 67° SW 20:35:19 66° SW
SL-16 R/B 3.5 20:29:58 10° WSW 20:35:16 40° NW 20:40:36 10° NNE
STARLINK-1243 4.4 20:31:43 10° W 20:35:38 47° NNW 20:36:16 43° NNE
Cosmos 1610 Rocket 4.3 20:31:07 10° N 20:37:23 81° E 20:39:03 51° SSE
STARLINK-1101 3.9 20:34:48 10° WNW 20:38:25 62° W 20:38:25 62° W
STARLINK-1236 4.4 20:36:25 10° W 20:40:20 45° NNW 20:40:46 43° N
IGS 5A 4.1 20:42:14 48° NNE 20:42:14 48° NNE 20:45:26 10° N
Aureole 2 Rocket 3.8 20:40:06 10° NW 20:42:44 38° WNW 20:42:44 38° WNW
STARLINK-1102 4.2 20:39:47 10° WNW 20:43:11 54° W 20:43:11 54° W
Terra 3.0 20:49:36 30° NE 20:49:36 30° NE 20:52:47 10° N
STARLINK-1111 4.4 20:44:46 10° WNW 20:47:58 48° W 20:47:58 48° W
Cosmos 2341 Rocket 4.0 20:47:15 10° N 20:53:33 60° ENE 20:53:51 60° E
Cosmos 1703 4.2 20:50:09 10° NNW 20:53:09 47° NW 20:53:09 47° NW
Cosmos 1726 Rocket 4.2 20:55:08 52° N 20:55:08 52° N 20:58:32 10° N
ATLAS 2AS CENTAUR R/B 3.0 20:48:34 10° NW 20:56:13 61° NE 20:57:42 52° E
Meteor 1-16 Rocket 4.4 20:54:16 33° SW 20:56:35 63° WNW 21:02:01 10° N
Cosmos 1603 3.6 20:53:25 26° SSW 20:56:41 82° WNW 21:02:20 10° NNE
Cosmos 1825 Rocket 4.4 20:53:20 10° NNW 20:57:33 44° W 20:57:49 43° WSW
USA 234 3.7 20:52:13 10° NE 20:58:39 61° NNW 21:05:03 10° WSW
Aureole 1 Rocket 4.3 21:07:14 65° SE 21:07:48 67° ESE 21:14:28 10° NNE
CZ-2C R/B 4.0 21:03:28 10° N 21:08:10 35° WNW 21:12:49 10° SW
COSMOS 2455 3.6 21:05:27 10° NNW 21:11:07 40° NE 21:11:09 40° NE
Meteor 1-11 4.3 21:05:56 10° NNW 21:11:43 69° W 21:12:06 67° SW
Cosmos 2218 Rocket 4.2 21:16:09 10° N 21:21:26 56° NE 21:21:26 56° NE
Cosmos 1656 Rocket 3.9 21:17:25 10° NNW 21:22:37 65° W 21:22:37 65° W
ISS -0.5 21:20:53 10° WNW 21:21:09 12° WNW 21:21:09 12° WNW
ERS-1 Rocket 3.6 21:28:47 53° NW 21:28:47 53° NW 21:32:49 10° NNW
Resurs 01 Rocket 4.1 21:30:39 13° WSW 21:31:48 14° W 21:34:13 10° NW
Cosmos 2181 Rocket 4.2 21:33:09 60° NNE 21:33:09 60° NNE 21:38:15 10° NNE
SPOT 5 4.2 21:35:19 34° NNW 21:35:19 34° NNW 21:37:51 10° NNW
Cosmos 2369 Rocket 3.8 21:34:34 10° NW 21:39:09 26° WSW 21:39:39 25° WSW
SL-8 Rocket 4.4 21:51:05 10° NNW 21:56:35 61° WNW 21:56:35 61° WNW
CZ-4C R/B 4.4 21:57:48 10° NNW 22:03:08 25° NNE 22:06:32 18° ENE
Cosmos 2366 rocket 4.5 21:58:25 10° NNW 22:03:18 56° NW 22:03:18 56° NW
Mayak 1.7 22:06:34 10° NNE 22:06:55 12° NNE 22:06:55 12° NNE
NOSS 3-4 (A) 4.2 22:07:33 10° NW 22:13:24 56° W 22:13:24 56° W
NOSS 3-4 (C) 4.2 22:07:39 10° NW 22:13:29 57° W 22:13:29 57° W
Terra 4.1 22:28:29 21° NW 22:28:29 21° NW 22:30:28 10° NNW
Cosmos 1697 Rocket 4.4 22:22:38 10° NNW 22:26:03 27° NNE 22:26:03 27° NNE
USA 234 4.4 22:35:05 10° ENE 22:41:01 39° N 22:46:57 10° WNW
ATLAS 2AS CENTAUR R/B 4.0 22:40:07 10° NW 22:45:08 33° W 22:45:08 33° W
Cosmos 1980 Rocket 4.1 22:47:47 10° N 22:50:54 24° NNE 22:50:54 24° NNE
COSMOS 2455 4.5 22:51:25 10° NW 22:54:18 27° WNW 22:54:18 27° WNW
